Location: Kosice
(48.7167°N, 21.2500°E)
Time: 02:07:38
(UTC+01:00)

ISS - Pass Details

Date: 30 January 2021
Orbit: 417 x 422 km, 51.6° (Epoch: 06 March)

Event Time Altitude Azimuth Distance (km) Brightness Sun altitude
Rises 18:51:37 0° 290° (WNW) 2,377 1.2 -23.4°
Reaches altitude 10° 18:53:43 10° 290° (WNW) 1,511 0.0 -23.7°
Enters shadow 18:56:01 40° 286° (WNW) 637 -2.4 -24.1°
